Time,TemperatureF,DewpointF,PressureIn,WindDirection,WindDirectionDegrees,WindSpeedMPH,WindSpeedGustMPH,Humidity,HourlyPrecipIn,Conditions,Clouds,dailyrainin,SoftwareType,DateUTC
2013-07-14 00:02:00,80.0,69.0,29.96,SE,144,9.0,15.0,70,0.00,,,0.00,,2013-07-14 05:02:00,
2013-07-14 00:11:00,80.0,69.0,29.96,ESE,121,8.0,16.0,70,0.00,,,0.00,,2013-07-14 05:11:00,
2013-07-14 00:23:00,79.0,68.0,29.96,SE,130,6.0,15.0,70,0.00,,,0.00,,2013-07-14 05:23:00,
2013-07-14 00:32:00,79.0,68.0,29.97,SSE,153,7.0,14.0,70,0.00,,,0.00,,2013-07-14 05:32:00,
2013-07-14 00:43:00,79.0,68.0,29.98,SE,131,8.0,13.0,70,0.00,,,0.00,,2013-07-14 05:43:00,
2013-07-14 00:53:00,79.0,68.0,29.99,SE,128,8.0,16.0,70,0.00,,,0.00,,2013-07-14 05:53:00,
2013-07-14 01:01:00,78.0,67.0,30.00,SE,124,9.0,15.0,70,0.00,,,0.00,,2013-07-14 06:01:00,
2013-07-14 01:11:00,78.0,67.0,30.00,ESE,109,9.0,13.0,70,0.00,,,0.00,,2013-07-14 06:11:00,
2013-07-14 01:22:00,78.0,68.0,30.02,East,98,7.0,11.0,71,0.00,,,0.00,,2013-07-14 06:22:00,
2013-07-14 01:32:00,78.0,67.0,30.03,SSE,147,7.0,13.0,70,0.00,,,0.00,,2013-07-14 06:32:00,
2013-07-14 01:42:00,78.0,67.0,30.04,SE,145,7.0,12.0,70,0.00,,,0.00,,2013-07-14 06:42:00,
2013-07-14 01:53:00,78.0,67.0,30.04,SE,128,7.0,15.0,69,0.00,,,0.00,,2013-07-14 06:53:00,
2013-07-14 02:02:00,78.0,67.0,30.01,SSE,154,7.0,15.0,68,0.00,,,0.00,,2013-07-14 07:02:00,
2013-07-14 02:12:00,77.0,65.0,29.99,SSE,162,11.0,15.0,66,0.00,,,0.00,,2013-07-14 07:12:00,
2013-07-14 02:22:00,77.0,64.0,29.99,SSE,150,10.0,16.0,65,0.00,,,0.00,,2013-07-14 07:22:00,
2013-07-14 02:33:00,77.0,64.0,29.99,SSE,167,10.0,18.0,64,0.00,,,0.00,,2013-07-14 07:33:00,
2013-07-14 02:43:00,77.0,64.0,29.99,SSW,194,7.0,15.0,64,0.00,,,0.00,,2013-07-14 07:43:00,
2013-07-14 02:53:00,77.0,64.0,29.98,South,190,9.0,14.0,65,0.00,,,0.00,,2013-07-14 07:53:00,
2013-07-14 03:01:00,77.0,64.0,29.98,SSW,209,9.0,17.0,64,0.00,,,0.00,,2013-07-14 08:01:00,
2013-07-14 03:11:00,77.0,64.0,29.98,South,178,8.0,14.0,64,0.00,,,0.00,,2013-07-14 08:11:00,
2013-07-14 03:22:00,77.0,64.0,29.99,South,172,5.0,13.0,64,0.00,,,0.00,,2013-07-14 08:22:00,
2013-07-14 03:32:00,77.0,63.0,30.01,SSE,149,5.0,10.0,63,0.00,,,0.00,,2013-07-14 08:32:00,
2013-07-14 03:42:00,77.0,63.0,30.02,SSE,160,3.0,8.0,63,0.00,,,0.00,,2013-07-14 08:42:00,
2013-07-14 03:53:00,76.0,63.0,30.03,SE,140,0.0,4.0,64,0.00,,,0.00,,2013-07-14 08:53:00,
2013-07-14 04:01:00,76.0,63.0,30.03,West,263,2.0,4.0,65,0.00,,,0.00,,2013-07-14 09:01:00,
2013-07-14 04:11:00,76.0,63.0,30.03,SW,215,1.0,4.0,65,0.00,,,0.00,,2013-07-14 09:11:00,
2013-07-14 04:22:00,75.0,63.0,30.03,SSE,166,2.0,6.0,66,0.00,,,0.00,,2013-07-14 09:22:00,
2013-07-14 04:32:00,75.0,64.0,30.03,SSE,148,4.0,5.0,69,0.00,,,0.00,,2013-07-14 09:32:00,
2013-07-14 04:42:00,74.0,64.0,30.02,SSE,153,2.0,6.0,70,0.00,,,0.00,,2013-07-14 09:42:00,
2013-07-14 04:52:00,74.0,64.0,30.01,South,171,3.0,9.0,71,0.00,,,0.00,,2013-07-14 09:52:00,
2013-07-14 05:01:00,73.0,63.0,30.01,SSE,154,5.0,10.0,72,0.00,,,0.00,,2013-07-14 10:01:00,
2013-07-14 05:11:00,73.0,63.0,30.00,South,181,4.0,8.0,72,0.00,,,0.00,,2013-07-14 10:11:00,
2013-07-14 05:21:00,73.0,63.0,30.01,SSW,195,5.0,9.0,71,0.00,,,0.00,,2013-07-14 10:21:00,
2013-07-14 05:32:00,73.0,63.0,30.01,SE,144,6.0,10.0,70,0.00,,,0.00,,2013-07-14 10:32:00,
2013-07-14 05:42:00,73.0,63.0,30.01,SSW,199,6.0,10.0,70,0.00,,,0.00,,2013-07-14 10:42:00,
2013-07-14 05:53:00,73.0,63.0,30.00,SSE,167,6.0,11.0,70,0.00,,,0.00,,2013-07-14 10:53:00,
2013-07-14 06:01:00,73.0,63.0,30.02,SE,134,4.0,9.0,70,0.00,,,0.00,,2013-07-14 11:01:00,
2013-07-14 06:11:00,73.0,63.0,30.03,SE,130,0.0,6.0,71,0.00,,,0.00,,2013-07-14 11:11:00,
2013-07-14 06:21:00,72.0,62.0,30.03,South,181,0.0,2.0,72,0.00,,,0.00,,2013-07-14 11:21:00,
2013-07-14 06:32:00,72.0,63.0,30.03,ESE,108,2.0,5.0,73,0.00,,,0.00,,2013-07-14 11:32:00,
2013-07-14 06:43:00,72.0,63.0,30.03,ESE,123,1.0,5.0,74,0.00,,,0.00,,2013-07-14 11:43:00,
2013-07-14 06:53:00,72.0,63.0,30.03,SSW,201,2.0,5.0,74,0.00,,,0.00,,2013-07-14 11:53:00,
2013-07-14 07:02:00,72.0,63.0,30.02,South,171,2.0,6.0,73,0.00,,,0.00,,2013-07-14 12:02:00,
2013-07-14 07:11:00,72.0,63.0,30.03,ESE,119,2.0,5.0,74,0.00,,,0.00,,2013-07-14 12:11:00,
2013-07-14 07:22:00,72.0,64.0,30.01,SSE,155,1.0,4.0,75,0.00,,,0.00,,2013-07-14 12:22:00,
2013-07-14 07:32:00,71.0,63.0,30.01,ESE,117,1.0,4.0,76,0.00,,,0.00,,2013-07-14 12:32:00,
2013-07-14 07:52:00,70.0,64.0,30.01,ESE,119,5.0,9.0,82,0.00,,,0.00,,2013-07-14 12:52:00,
2013-07-14 08:01:00,70.0,65.0,30.01,ESE,115,5.0,10.0,84,0.00,,,0.00,,2013-07-14 13:01:00,
2013-07-14 08:11:00,70.0,65.0,30.01,East,101,4.0,9.0,85,0.00,,,0.00,,2013-07-14 13:11:00,
2013-07-14 08:22:00,70.0,65.0,30.01,East,98,8.0,13.0,85,0.00,,,0.00,,2013-07-14 13:22:00,
2013-07-14 08:32:00,70.0,66.0,30.01,ESE,115,7.0,11.0,86,0.00,,,0.00,,2013-07-14 13:32:00,
2013-07-14 08:42:00,70.0,66.0,30.01,ESE,115,7.0,11.0,86,0.00,,,0.00,,2013-07-14 13:42:00,
2013-07-14 08:53:00,70.0,66.0,30.02,East,96,7.0,11.0,86,0.00,,,0.00,,2013-07-14 13:53:00,
2013-07-14 09:01:00,70.0,66.0,30.03,SE,134,4.0,14.0,86,0.00,,,0.00,,2013-07-14 14:01:00,
2013-07-14 09:11:00,71.0,66.0,30.03,ESE,121,8.0,14.0,85,0.00,,,0.00,,2013-07-14 14:11:00,
2013-07-14 09:23:00,72.0,67.0,30.03,SE,128,5.0,11.0,84,0.00,,,0.00,,2013-07-14 14:23:00,
2013-07-14 09:33:00,72.0,67.0,30.03,ESE,123,6.0,13.0,83,0.00,,,0.00,,2013-07-14 14:33:00,
2013-07-14 09:43:00,73.0,67.0,30.03,SE,132,8.0,12.0,81,0.00,,,0.00,,2013-07-14 14:43:00,
2013-07-14 09:53:00,73.0,66.0,30.04,ESE,109,8.0,15.0,78,0.00,,,0.00,,2013-07-14 14:53:00,
2013-07-14 10:01:00,74.0,66.0,30.03,SE,136,8.0,12.0,77,0.00,,,0.00,,2013-07-14 15:01:00,
2013-07-14 10:12:00,75.0,66.0,30.04,ESE,121,7.0,12.0,73,0.00,,,0.00,,2013-07-14 15:12:00,
2013-07-14 10:22:00,76.0,66.0,30.04,SE,125,8.0,14.0,72,0.00,,,0.00,,2013-07-14 15:22:00,
2013-07-14 10:32:00,77.0,66.0,30.04,South,177,7.0,14.0,69,0.00,,,0.00,,2013-07-14 15:32:00,
2013-07-14 10:42:00,78.0,66.0,30.04,ESE,120,8.0,11.0,66,0.00,,,0.00,,2013-07-14 15:42:00,
2013-07-14 11:01:00,78.0,66.0,30.06,ESE,113,7.0,13.0,67,0.00,,,0.00,,2013-07-14 16:01:00,
2013-07-14 11:11:00,78.0,67.0,30.06,SE,127,6.0,13.0,68,0.00,,,0.00,,2013-07-14 16:11:00,
2013-07-14 11:22:00,79.0,66.0,30.06,SE,129,7.0,11.0,65,0.00,,,0.00,,2013-07-14 16:22:00,
2013-07-14 11:32:00,79.0,64.0,30.06,SE,128,8.0,14.0,60,0.00,,,0.00,,2013-07-14 16:32:00,
2013-07-14 11:43:00,80.0,63.0,30.06,SE,140,8.0,13.0,56,0.00,,,0.00,,2013-07-14 16:43:00,
2013-07-14 11:53:00,81.0,63.0,30.06,SE,136,6.0,12.0,55,0.00,,,0.00,,2013-07-14 16:53:00,
2013-07-14 12:02:00,81.0,63.0,30.06,SE,125,8.0,14.0,55,0.00,,,0.00,,2013-07-14 17:02:00,
2013-07-14 12:11:00,81.0,64.0,30.06,SE,129,5.0,13.0,56,0.00,,,0.00,,2013-07-14 17:11:00,
2013-07-14 12:22:00,80.0,63.0,30.07,SE,127,5.0,11.0,57,0.00,,,0.00,,2013-07-14 17:22:00,
2013-07-14 12:32:00,80.0,61.0,30.07,SSE,159,5.0,10.0,53,0.00,,,0.00,,2013-07-14 17:32:00,
2013-07-14 12:43:00,80.0,62.0,30.07,SE,125,5.0,9.0,54,0.00,,,0.00,,2013-07-14 17:43:00,
2013-07-14 12:53:00,80.0,61.0,30.07,ESE,121,7.0,11.0,52,0.00,,,0.00,,2013-07-14 17:53:00,
2013-07-14 13:01:00,81.0,61.0,30.08,ESE,115,8.0,12.0,50,0.00,,,0.00,,2013-07-14 18:01:00,
2013-07-14 13:11:00,81.0,63.0,30.07,ESE,109,6.0,12.0,54,0.00,,,0.00,,2013-07-14 18:11:00,
2013-07-14 13:21:00,82.0,63.0,30.07,ESE,119,7.0,11.0,52,0.00,,,0.00,,2013-07-14 18:21:00,
2013-07-14 13:32:00,82.0,61.0,30.07,East,95,6.0,10.0,49,0.00,,,0.00,,2013-07-14 18:32:00,
2013-07-14 13:42:00,83.0,62.0,30.08,ESE,111,6.0,15.0,50,0.00,,,0.00,,2013-07-14 18:42:00,
2013-07-14 13:52:00,85.0,62.0,30.07,SE,146,8.0,12.0,47,0.00,,,0.00,,2013-07-14 18:52:00,
2013-07-14 14:01:00,85.0,64.0,30.07,ESE,117,4.0,18.0,49,0.00,,,0.00,,2013-07-14 19:01:00,
2013-07-14 14:11:00,85.0,62.0,30.07,SE,140,4.0,16.0,47,0.00,,,0.00,,2013-07-14 19:11:00,
2013-07-14 14:22:00,85.0,61.0,30.07,SSE,155,6.0,11.0,45,0.00,,,0.00,,2013-07-14 19:22:00,
2013-07-14 14:32:00,85.0,58.0,30.07,ESE,115,9.0,13.0,40,0.00,,,0.00,,2013-07-14 19:32:00,
2013-07-14 14:43:00,85.0,60.0,30.07,SE,128,8.0,12.0,43,0.00,,,0.00,,2013-07-14 19:43:00,
2013-07-14 14:52:00,86.0,60.0,30.06,SE,135,6.0,10.0,42,0.00,,,0.00,,2013-07-14 19:52:00,
2013-07-14 15:01:00,86.0,60.0,30.07,East,90,9.0,14.0,41,0.00,,,0.00,,2013-07-14 20:01:00,
2013-07-14 15:11:00,86.0,57.0,30.07,SSE,150,7.0,12.0,38,0.00,,,0.00,,2013-07-14 20:11:00,
2013-07-14 15:22:00,87.0,61.0,30.06,ESE,105,3.0,10.0,42,0.00,,,0.00,,2013-07-14 20:22:00,
2013-07-14 15:32:00,87.0,59.0,30.06,ESE,120,6.0,11.0,39,0.00,,,0.00,,2013-07-14 20:32:00,
2013-07-14 15:43:00,87.0,60.0,30.06,East,96,9.0,13.0,40,0.00,,,0.00,,2013-07-14 20:43:00,
2013-07-14 15:53:00,87.0,59.0,30.06,SE,134,7.0,14.0,39,0.00,,,0.00,,2013-07-14 20:53:00,
2013-07-14 16:01:00,87.0,58.0,30.06,East,99,9.0,15.0,38,0.00,,,0.00,,2013-07-14 21:01:00,
2013-07-14 16:11:00,87.0,58.0,30.06,East,81,5.0,14.0,38,0.00,,,0.00,,2013-07-14 21:11:00,
2013-07-14 16:22:00,87.0,58.0,30.06,ESE,108,9.0,15.0,37,0.00,,,0.00,,2013-07-14 21:22:00,
2013-07-14 16:32:00,86.0,58.0,30.06,ESE,110,6.0,14.0,39,0.00,,,0.00,,2013-07-14 21:32:00,
2013-07-14 16:43:00,86.0,58.0,30.06,ESE,110,6.0,14.0,39,0.00,,,0.00,,2013-07-14 21:43:00,
2013-07-14 16:52:00,86.0,58.0,30.06,ESE,110,6.0,14.0,39,0.00,,,0.00,,2013-07-14 21:52:00,
2013-07-14 17:01:00,86.0,58.0,30.06,ESE,110,6.0,14.0,39,0.00,,,0.00,,2013-07-14 22:01:00,
2013-07-14 17:11:00,86.0,58.0,30.06,ESE,110,6.0,14.0,39,0.00,,,0.00,,2013-07-14 22:11:00,